Alcoa, TN

4:43 PM EDT on July 23, 2016 (GMT -0400)
McGhee Tyson

Weather History for KTYS - February, 2014

Change the Weather History Date:

Monday, February 24, 2014

  Actual Average Record
Temperature  
Mean Temperature 42 °F 45 °F  
Max Temperature 51 °F 55 °F 76 °F (1890)
Min Temperature 33 °F 34 °F 5 °F (1873)
Degree Days  
Heating Degree Days 23 20  
Month to date heating degree days 538 556  
Since 1 July heating degree days 2927 2818  
Cooling Degree Days 0 0  
Month to date cooling degree days 0 0  
Year to date cooling degree days 0 0  
Moisture  
Dew Point 22 °F    
Average Humidity 48    
Maximum Humidity 76    
Minimum Humidity 19    
Precipitation  
Precipitation 0.00 in 0.16 in 4.34 in (1875)
Month to date precipitation 4.95 3.66  
Year to date precipitation 8.07 7.98  
Snow  
Snow 0.00 in 0.00 in - ()
Month to date snowfall 6.9 1.4  
Since 1 July snowfall 11.9 4.9  
Snow Depth 0.00 in    
Sea Level Pressure  
Sea Level Pressure 30.16 in    
Wind  
Wind Speed 8 mph (NNE)    
Max Wind Speed 17 mph    
Max Gust Speed 22 mph    
Visibility 10 miles    
Events      
T = Trace of Precipitation, MM = Missing Value Source: NWS Daily Summary

Daily Weather History Graph

Daily Weather History Graph

Search for Another Location

Airport or City:

Trip Planner

Search our weather history database for the weather conditions in past years. The results will help you decide how hot, cold, wet, or windy it might be!

Date:

Astronomy

Feb. 24, 2014 Rise Set
Actual Time 7:12 AM EST 6:26 PM EST
Civil Twilight 6:46 AM EST 6:52 PM EST
Nautical Twilight 6:16 AM EST 7:21 PM EST
Astronomical Twilight 5:47 AM EST 7:51 PM EST
Moon 3:04 AM EST (2/24) 1:32 PM EST (2/24)
Length of Visible Light 12h 05m
Length of Day
11h 14m
Waning Crescent, 28% of the Moon is Illuminated
Feb 24
Waning Crescent
Mar 1
New
Mar 8
First Quarter
Mar 16
Full
Mar 23
Last Quarter

Hourly Weather History & Observations

Time (EST) Temp. Windchill Dew Point Humidity Pressure Visibility Wind Dir Wind Speed Gust Speed Precip Events Conditions
12:53 AM 46.9 °F - 34.0 °F 61% 30.06 in 10.0 mi North 6.9 mph - N/A   Overcast
1:53 AM 45.0 °F 39.3 °F 34.0 °F 65% 30.07 in 10.0 mi North 11.5 mph - N/A   Overcast
2:53 AM 44.1 °F 37.7 °F 34.0 °F 68% 30.08 in 10.0 mi North 12.7 mph - N/A   Overcast
3:53 AM 39.9 °F 31.8 °F 32.0 °F 73% 30.10 in 10.0 mi North 15.0 mph - N/A   Overcast
4:53 AM 37.0 °F 28.1 °F 28.9 °F 73% 30.13 in 10.0 mi North 15.0 mph 20.7 mph N/A   Scattered Clouds
5:53 AM 35.1 °F 30.1 °F 28.0 °F 76% 30.15 in 10.0 mi North 5.8 mph - N/A   Scattered Clouds
6:26 AM 34.0 °F 26.6 °F 26.1 °F 73% 30.16 in 10.0 mi North 9.2 mph - N/A   Mostly Cloudy
6:53 AM 34.0 °F 26.0 °F 25.0 °F 70% 30.18 in 10.0 mi North 10.4 mph - N/A   Overcast
7:53 AM 34.0 °F 28.0 °F 25.0 °F 70% 30.20 in 10.0 mi North 6.9 mph - N/A   Mostly Cloudy
8:15 AM 34.0 °F 28.0 °F 25.0 °F 70% 30.20 in 10.0 mi North 6.9 mph - N/A   Scattered Clouds
8:53 AM 36.0 °F 30.3 °F 25.0 °F 64% 30.22 in 10.0 mi NNE 6.9 mph - N/A   Partly Cloudy
9:53 AM 39.0 °F 34.8 °F 24.1 °F 55% 30.24 in 10.0 mi North 5.8 mph - N/A   Partly Cloudy
10:53 AM 42.1 °F 37.7 °F 21.0 °F 43% 30.24 in 10.0 mi NNE 6.9 mph - N/A   Partly Cloudy
11:53 AM 68.0 °F - 39.2 °F 35% 30.23 in - North - - N/A   Unknown
12:53 PM 48.0 °F - 16.0 °F 28% 30.22 in 10.0 mi North 6.9 mph - N/A   Clear
1:53 PM 48.9 °F - 15.1 °F 26% 30.20 in 10.0 mi NNE 11.5 mph - N/A   Clear
2:53 PM 48.9 °F - 12.0 °F 23% 30.18 in 10.0 mi ENE 8.1 mph - N/A   Partly Cloudy
3:53 PM 51.1 °F - 10.9 °F 20% 30.19 in 10.0 mi North 6.9 mph - N/A   Partly Cloudy
4:53 PM 51.1 °F - 12.0 °F 21% 30.19 in 10.0 mi NNE 8.1 mph - N/A   Partly Cloudy
6:53 PM 44.1 °F 40.1 °F 14.0 °F 30% 30.17 in 10.0 mi NNE 6.9 mph - N/A   Mostly Cloudy
7:53 PM 43.0 °F 38.8 °F 12.9 °F 30% 30.17 in 10.0 mi NNE 6.9 mph - N/A   Mostly Cloudy
8:53 PM 39.0 °F 34.0 °F 15.1 °F 38% 30.16 in 10.0 mi NE 6.9 mph - N/A   Mostly Cloudy
9:53 PM 39.0 °F 35.7 °F 15.1 °F 38% 30.15 in 10.0 mi ENE 4.6 mph - N/A   Scattered Clouds
10:53 PM 39.0 °F 34.8 °F 12.9 °F 34% 30.13 in 10.0 mi NNE 5.8 mph - N/A   Clear
11:53 PM 36.0 °F 30.3 °F 17.1 °F 46% 30.11 in 10.0 mi North 6.9 mph - N/A   Clear